Tracking 20626 objects as of 8-Apr-2020
HD Live streaming from Space Station
objects crossing your sky now

THOR BURNER 2 R/B

Track THOR BURNER 2 R/B now!
10-day predictions


NORAD ID: 2940
Int'l Code: 1967-080B
Perigee: 817.9 km
Apogee: 871.2 km
Inclination: 98.8 °
Period: 101.7 minutes
Semi major axis: 7215 km
RCS: 1.65 m2 (large)
Launch date: August 23, 1967
Source: United States (US)
Launch site: AIR FORCE WESTERN TEST RANGE (AFWTR)

Note: This is a ROCKET BODY
aabbcc
Your satellite tracking list
Your tracking list is empty




NASA's NSSDC Master Catalog

Two Line Element Set (TLE):
1  2940U 67080B   20098.87406986 +.00000014 +00000-0 +29033-4 0  9999
2  2940 098.7575 323.2989 0036945 222.8239 137.0056 14.16436154714794
Source of the keplerian elements: AFSPC